SCP
0 0 0 0 0 0 -0 -0 -0 -0 -0 -0 -0 -0 0 0 0 0 0 0 -0 0 0 0 0 0 0 0 0 0 0 0 0 0 0 0 0 0 0 0 0 0 0
0 0 0 0 0 0 0 0 0 0 -0 0 -0 0 0 0 0 0 0 0 0 0 0 0 0 0 0 0 -0 0 0 0 0 0 0 0 0 0 0 0 0 0 0
0 0 0 0 0 0 0 0 0 0 0 0 0 0 0 0 0 0 0 0 0 0 0 0 0 0 0 0 0 0 0 0 0 0 0 0 0 0 0 0 0 0 0
0 0 0 0 0 0 0 0 0 0 0 0 0 0 0 0 0 0 0 0 0 0 0 0 0 0 0 0 0 0 0 0 0 0 0 0 0 0 0 0 0 0 0
0 0 0 0 0 0 0 0 0 0 0 0 0 0 0 0 0 0 0 0 0 0 0 0 0 0 0 0 0 0 0 0 0 0 0 0 0 0 0 0 0 0 0
0 0 0 0 0 0 0 0 0 1 0 0 0 0 0 0 0 0 0 0 0 0 0 0 0 0 0 0 0 0 0 0 0 0 0 0 0 0 0 0 0 0 0
1 1 0 0 0 0 0 0 0 2 0 0 0 0 0 0 0 0 0 0 0 0 0 0 0 0 0 0 0 0 0 0 0 0 0 0 0 0 0 0 0 0 0
2 2 1 1 0 0 1 1 2 1 1 0 0 0 0 0 0 0 0 0 0 0 0 0 0 0 0 0 0 0 0 0 0 0 0 0 0 0 0 0 0 0 0
2 3 2 1 1 1 2 2 1 0 0 0 0 0 0 0 0 0 0 0 0 0 0 0 0 0 0 0 0 0 0 0 0 -0 -0 -0 -0 -0 -0 -0 0 0 0
0 0 1 2 2 2 1 0 1 0 0 0 0 0 0 0 0 0 0 0 0 0 0 0 0 0 0 0 0 0 0 0 -0 -0 -0 -0 -0 -0 -0 -0 0 0 0
0 0 0 0 0 0 0 0 0 -0 -0 0 0 0 0 0 0 0 0 0 0 1 0 0 0 0 0 0 0 0 0 0 -0 -0 -0 -0 -0 -0 -0 -0 0 0 0
0 0 0 0 0 0 0 0 0 0 0 0 0 0 0 0 0 0 -0 -0 0 0 0 0 0 0 0 0 0 0 0 0 -0 -0 -0 -0 -0 -0 -0 -0 0 0 0
0 0 0 0 0 0 0 0 0 0 0 0 0 0 0 0 0 0 0 0 0 0 0 0 0 0 0 0 0 0 0 0 0 0 -0 0 0 0 0 0 0 0 0
0 0 0 0 0 0 0 0 0 0 0 -0 0 1 0 0 0 0 0 0 -0 0 0 0 0 0 0 0 0 0 0 0 0 0 -0 0 0 0 0 0 0 0 0
0 0 0 0 0 0 0 0 0 0 0 -0 0 0 0 1 0 0 0 0 0 0 0 0 0 0 0 0 0 0 0 0 -0 -0 0 0 0 0 0 0 0 0 0
0 0 0 0 0 0 0 0 0 0 0 0 1 1 0 1 1 0 0 0 0 0 0 0 0 0 0 0 0 0 0 0 -0 0 0 0 0 0 0 0 0 0 0
0 0 0 0 0 0 0 0 0 0 0 0 0 1 1 1 1 0 0 0 0 0 0 0 0 0 0 0 0 0 0 -0 -0 0 0 0 0 0 0 0 0 0 0
0 0 0 0 0 0 0 0 0 0 0 0 0 0 0 0 0 0 0 0 0 0 0 0 0 0 0 0 0 0 0 0 0 0 0 0 0 0 0 0 0 0 0
-0 0 0 0 0 0 0 0 0 0 0 0 0 0 0 0 0 0 0 0 0 0 0 0 0 0 0 0 0 0 0 0 0 0 0 0 0 0 0 0 0 0 0
-0 -0 -0 -0 0 0 0 0 0 0 0 0 0 0 0 0 0 0 0 0 0 0 0 0 0 0 0 0 0 0 0 0 0 1 0 0 0 0 0 0 0 0 0
0 0 0 0 0 0 0 0 0 0 0 0 0 0 0 0 0 0 0 0 0 0 0 0 0 0 0 0 0 0 0 0 0 0 0 0 0 0 0 0 0 0 0
0 0 0 0 0 0 0 0 0 -0 -0 0 0 0 0 0 0 0 0 0 0 0 0 0 0 0 0 0 0 0 0 0 0 0 0 0 0 0 0 0 0 0 0
0 0 0 -0 0 0 0 0 0 0 -0 0 0 0 0 0 0 0 0 0 0 0 0 0 0 0 0 0 0 0 0 0 0 0 0 0 0 0 0 0 0 0 0
0 0 0 0 0 0 0 0 0 0 0 0 0 0 0 0 0 0 0 0 0 0 0 0 0 0 0 0 0 0 0 0 0 0 0 0 0 0 0 0 0 0 0
0 0 0 0 0 0 0 0 0 0 0 0 0 0 0 0 0 0 0 0 0 0 0 0 0 0 0 0 0 0 0 0 0 0 0 0 0 0 0 0 0 0 0
0 0 0 0 0 0 0 0 0 0 0 0 0 0 0 0 0 0 0 0 0 0 0 0 0 0 0 0 0 0 0 0 0 0 0 0 0 0 0 0 0 0 0
Wind_Speed_500mb
26 22 19 15 18 14 9 9 13 14 4 7 13 14 12 19 14 13 14 13 13 22 24 21 18 12 12 17 18 17 16 15 14 12 11 10 11 12 13 13 12 13 12
31 33 26 26 24 26 27 20 17 19 12 10 14 21 26 19 32 18 13 12 15 21 24 19 16 14 13 16 20 19 18 17 14 10 7 7 9 12 13 14 13 12 13
24 38 38 39 31 33 26 30 20 34 31 21 23 26 32 22 31 30 29 31 25 24 21 19 16 13 12 12 14 15 16 15 12 9 6 5 7 10 13 13 12 11 13
37 34 49 47 43 43 42 41 41 27 30 34 39 29 34 29 24 32 32 28 28 25 20 18 17 16 13 10 11 12 14 14 12 10 7 6 7 9 10 12 13 11 12
51 50 47 50 49 47 49 46 46 40 38 42 31 41 43 33 34 37 30 32 25 26 25 29 27 21 17 11 10 11 13 13 11 9 7 7 8 7 9 12 12 11 11
59 60 57 50 59 56 55 55 50 41 42 40 32 31 37 27 37 38 35 28 35 33 34 35 31 26 19 12 9 11 12 11 10 10 7 6 7 5 10 13 14 11 11
57 65 66 56 53 62 54 54 54 55 53 49 44 43 48 41 37 58 44 38 44 42 36 37 39 29 24 21 14 12 12 12 13 11 8 6 6 6 9 13 15 13 11
61 64 70 61 55 58 54 54 53 62 61 55 56 54 51 44 41 44 48 41 44 40 41 43 43 35 32 29 24 19 18 17 16 15 12 10 7 6 9 12 15 17 14
78 73 66 65 61 53 56 54 53 57 60 57 53 50 21 26 30 49 50 53 51 49 42 41 41 43 39 33 29 27 23 22 23 24 22 19 14 13 12 12 14 16 14
64 25 33 74 60 58 50 45 45 43 63 67 62 54 47 48 15 25 48 50 55 50 40 30 32 43 47 47 39 30 32 34 30 31 32 29 25 21 19 15 15 17 15
30 35 73 49 48 56 59 55 36 71 78 59 51 26 32 38 48 54 52 51 58 15 26 35 48 36 53 53 54 48 37 34 44 40 37 34 34 32 28 24 18 19 18
9 25 39 38 61 59 54 57 48 39 36 34 50 39 36 38 44 38 46 53 40 39 20 25 48 49 46 49 51 55 54 48 42 40 37 36 38 37 38 33 27 23 20
18 19 8 14 28 14 17 23 48 40 36 35 31 40 41 39 40 37 36 44 40 42 41 34 21 34 45 35 69 66 56 51 49 49 45 44 43 42 40 39 37 30 26
24 21 18 12 10 5 10 10 18 35 46 27 42 41 32 39 45 50 56 56 62 55 59 66 60 54 47 37 41 63 69 48 52 55 54 46 46 45 43 43 43 38 32
25 22 19 15 12 12 16 13 8 17 26 33 41 40 31 29 36 50 62 67 63 66 66 73 70 59 39 39 50 56 39 49 69 66 53 54 46 47 48 48 47 46 38
24 21 19 19 15 13 8 12 11 13 18 17 26 31 32 34 37 43 43 47 50 56 60 56 60 42 43 38 36 27 34 38 55 57 57 48 45 46 48 50 51 50 44
26 19 18 17 16 10 9 8 9 6 5 1 8 12 14 17 16 19 23 31 34 35 39 48 50 45 41 44 34 29 44 53 43 30 36 40 40 38 39 47 48 51 48
33 27 20 17 15 11 12 10 12 15 11 7 6 5 5 8 13 14 20 26 26 26 30 35 36 42 35 30 37 29 28 34 38 28 27 31 32 36 37 37 41 48 52
40 35 35 30 26 22 22 22 22 22 24 18 15 15 15 16 20 24 22 25 30 32 33 39 41 35 30 23 29 37 38 35 32 27 25 23 22 28 35 36 32 43 51
43 44 42 41 35 32 24 27 31 36 33 28 27 22 20 15 18 25 28 26 27 26 29 32 34 32 26 21 26 29 32 32 28 27 24 24 27 28 24 31 35 32 45
50 48 53 49 37 29 26 27 33 37 41 42 39 35 31 22 19 22 20 13 17 19 24 26 25 31 29 28 26 23 24 22 22 26 30 29 26 32 30 29 30 31 40
44 47 51 51 42 34 28 31 35 39 39 41 41 39 38 34 32 20 17 12 9 11 17 23 20 28 32 28 26 24 25 26 24 25 27 20 22 28 28 29 29 27 30
46 51 58 62 48 40 34 32 39 35 41 44 35 26 25 31 36 40 35 28 20 15 16 23 23 20 23 25 29 27 18 15 19 21 26 26 24 29 31 25 26 28 28
52 61 63 51 42 41 35 33 40 38 42 39 38 29 23 25 31 34 39 45 42 39 33 34 37 34 31 27 31 33 33 34 34 22 15 23 17 21 22 19 22 25 25
68 49 52 41 42 43 39 33 35 36 36 36 38 24 29 25 29 33 33 34 36 36 43 48 52 49 42 31 34 39 39 34 32 29 22 24 24 25 17 15 17 18 20
51 52 49 44 39 37 32 35 36 41 37 33 34 35 36 32 32 30 28 30 37 43 49 48 43 40 44 50 40 36 34 31 30 35 31 29 24 26 16 17 11 13 18
Wind_Direction_500mb
201 220 238 212 235 238 224 190 197 191 210 166 192 219 231 283 267 282 284 296 340 323 328 301 294 279 252 223 224 228 227 237 252 258 269 289 307 320 329 333 334 331 332
211 214 229 243 237 243 255 260 242 227 223 261 234 227 244 262 264 269 273 284 303 311 326 324 303 288 266 240 234 239 238 248 253 249 259 289 324 334 335 339 337 332 331
238 215 220 222 226 237 243 251 252 238 235 266 260 247 243 271 225 247 257 276 273 286 301 316 320 308 289 257 239 231 233 234 236 237 251 287 304 320 330 340 334 333 331
251 248 224 224 217 219 215 226 236 229 240 257 268 246 250 259 225 235 248 262 272 271 269 293 308 329 312 280 245 231 223 219 220 232 245 271 292 307 327 340 344 337 329
249 248 249 236 223 222 224 231 230 239 243 252 247 243 239 236 225 223 245 271 264 258 268 286 293 301 306 284 249 224 219 216 221 233 253 275 287 305 325 342 346 339 334
249 250 251 250 228 223 227 228 229 226 244 254 238 229 233 247 221 218 232 248 252 252 265 273 283 280 282 267 255 233 224 220 222 231 236 252 273 301 329 343 351 340 340
250 247 252 252 232 224 231 235 236 237 239 249 253 255 257 252 243 242 231 226 247 256 260 261 268 272 269 247 267 249 235 231 228 227 229 236 261 305 325 330 342 341 338
246 242 250 248 246 239 234 235 240 231 231 242 250 259 265 259 251 239 231 229 231 238 257 257 263 273 269 260 255 266 272 256 247 245 247 248 257 295 309 329 341 338 338
250 245 249 255 258 250 245 249 247 249 245 241 243 242 260 258 257 240 239 240 239 231 235 251 260 264 273 271 268 259 261 257 258 259 257 256 262 280 288 315 336 333 330
251 276 259 252 248 252 250 244 245 261 268 254 239 250 257 259 258 277 265 272 237 228 224 240 256 262 267 268 275 282 276 262 264 261 255 258 262 266 273 289 315 323 321
295 264 244 303 255 240 246 241 235 306 316 265 264 278 278 267 264 262 270 264 230 228 245 245 243 243 242 247 253 262 287 280 265 258 257 260 263 265 265 272 287 302 312
56 218 218 257 254 236 239 244 274 312 3 351 327 308 281 281 293 244 254 267 285 279 286 267 246 242 242 257 247 252 254 270 274 261 259 261 263 262 263 266 271 280 298
41 47 120 217 245 265 281 272 289 279 319 281 292 296 271 270 271 248 262 271 283 285 297 280 274 278 267 272 255 254 253 255 258 265 262 260 262 263 260 260 261 265 277
353 4 16 13 337 23 32 276 256 249 266 226 241 265 274 262 262 260 265 271 276 274 280 278 287 279 271 263 266 252 258 260 248 249 259 258 260 261 261 261 254 255 262
4 354 352 8 37 59 50 27 292 278 263 240 258 261 275 281 285 271 271 268 266 271 277 273 285 288 265 258 253 246 267 234 257 242 242 252 257 262 261 258 252 249 252
12 5 352 354 349 356 333 352 299 286 272 276 270 277 275 290 289 277 280 274 271 269 270 280 283 282 279 266 272 252 235 248 223 235 242 255 262 263 259 256 251 243 245
354 346 350 339 347 356 342 330 296 282 268 324 308 298 290 279 292 301 290 279 280 282 286 280 282 285 286 282 276 254 232 207 223 250 266 267 265 261 261 252 254 244 238
355 356 344 324 327 306 299 308 290 292 320 313 274 291 325 308 302 294 289 298 302 304 301 298 285 284 280 272 263 256 234 241 247 252 277 269 259 257 260 258 251 248 236
349 342 346 347 347 319 299 279 285 283 282 295 309 306 320 338 318 318 307 304 317 311 294 291 295 300 304 281 258 251 253 247 233 247 251 251 269 263 266 257 255 249 235
355 346 345 339 332 333 346 339 306 287 284 279 286 299 297 303 328 323 319 330 329 329 320 303 291 299 312 313 301 271 244 241 243 245 241 248 260 258 257 266 268 260 238
347 346 342 343 336 329 329 329 330 325 308 293 285 283 277 273 304 308 306 305 324 346 341 348 332 309 303 299 310 300 291 271 244 262 264 267 275 269 261 258 265 274 249
333 331 334 331 329 332 324 323 324 325 329 327 310 298 277 269 273 282 306 329 312 336 353 344 339 334 332 330 311 294 282 270 267 264 272 269 267 271 267 262 258 265 264
317 318 318 320 320 320 321 320 317 319 325 331 325 317 309 285 276 282 283 289 290 300 302 304 312 322 323 324 323 317 311 299 290 282 288 287 281 274 277 279 266 288 261
317 316 315 320 312 311 309 310 308 312 322 331 332 313 313 317 310 302 299 294 287 285 287 286 289 293 303 290 291 298 297 296 298 291 306 309 312 322 321 309 293 284 288
312 314 318 314 315 306 307 311 306 307 314 319 337 307 301 307 305 302 300 301 304 300 288 286 282 277 271 279 272 280 284 294 296 295 287 279 286 303 291 266 284 296 289
307 314 322 320 315 317 304 296 300 302 298 309 323 329 322 303 309 314 306 303 302 306 307 302 293 283 269 261 269 273 283 290 298 299 300 285 268 280 276 282 269 219 270
Wind_Speed_850mb
26 22 19 15 18 14 9 9 13 14 4 7 13 14 12 19 14 13 14 13 13 22 24 21 18 12 12 17 18 17 16 15 14 12 11 10 11 12 13 13 12 13 12
31 33 26 26 24 26 27 20 17 19 12 10 14 21 26 19 32 18 13 12 15 21 24 19 16 14 13 16 20 19 18 17 14 10 7 7 9 12 13 14 13 12 13
24 38 38 39 31 33 26 30 20 34 31 21 23 26 32 22 31 30 29 31 25 24 21 19 16 13 12 12 14 15 16 15 12 9 6 5 7 10 13 13 12 11 13
37 34 49 47 43 43 42 41 41 27 30 34 39 29 34 29 24 32 32 28 28 25 20 18 17 16 13 10 11 12 14 14 12 10 7 6 7 9 10 12 13 11 12
51 50 47 50 49 47 49 46 46 40 38 42 31 41 43 33 34 37 30 32 25 26 25 29 27 21 17 11 10 11 13 13 11 9 7 7 8 7 9 12 12 11 11
59 60 57 50 59 56 55 55 50 41 42 40 32 31 37 27 37 38 35 28 35 33 34 35 31 26 19 12 9 11 12 11 10 10 7 6 7 5 10 13 14 11 11
57 65 66 56 53 62 54 54 54 55 53 49 44 43 48 41 37 58 44 38 44 42 36 37 39 29 24 21 14 12 12 12 13 11 8 6 6 6 9 13 15 13 11
61 64 70 61 55 58 54 54 53 62 61 55 56 54 51 44 41 44 48 41 44 40 41 43 43 35 32 29 24 19 18 17 16 15 12 10 7 6 9 12 15 17 14
78 73 66 65 61 53 56 54 53 57 60 57 53 50 21 26 30 49 50 53 51 49 42 41 41 43 39 33 29 27 23 22 23 24 22 19 14 13 12 12 14 16 14
64 25 33 74 60 58 50 45 45 43 63 67 62 54 47 48 15 25 48 50 55 50 40 30 32 43 47 47 39 30 32 34 30 31 32 29 25 21 19 15 15 17 15
30 35 73 49 48 56 59 55 36 71 78 59 51 26 32 38 48 54 52 51 58 15 26 35 48 36 53 53 54 48 37 34 44 40 37 34 34 32 28 24 18 19 18
9 25 39 38 61 59 54 57 48 39 36 34 50 39 36 38 44 38 46 53 40 39 20 25 48 49 46 49 51 55 54 48 42 40 37 36 38 37 38 33 27 23 20
18 19 8 14 28 14 17 23 48 40 36 35 31 40 41 39 40 37 36 44 40 42 41 34 21 34 45 35 69 66 56 51 49 49 45 44 43 42 40 39 37 30 26
24 21 18 12 10 5 10 10 18 35 46 27 42 41 32 39 45 50 56 56 62 55 59 66 60 54 47 37 41 63 69 48 52 55 54 46 46 45 43 43 43 38 32
25 22 19 15 12 12 16 13 8 17 26 33 41 40 31 29 36 50 62 67 63 66 66 73 70 59 39 39 50 56 39 49 69 66 53 54 46 47 48 48 47 46 38
24 21 19 19 15 13 8 12 11 13 18 17 26 31 32 34 37 43 43 47 50 56 60 56 60 42 43 38 36 27 34 38 55 57 57 48 45 46 48 50 51 50 44
26 19 18 17 16 10 9 8 9 6 5 1 8 12 14 17 16 19 23 31 34 35 39 48 50 45 41 44 34 29 44 53 43 30 36 40 40 38 39 47 48 51 48
33 27 20 17 15 11 12 10 12 15 11 7 6 5 5 8 13 14 20 26 26 26 30 35 36 42 35 30 37 29 28 34 38 28 27 31 32 36 37 37 41 48 52
40 35 35 30 26 22 22 22 22 22 24 18 15 15 15 16 20 24 22 25 30 32 33 39 41 35 30 23 29 37 38 35 32 27 25 23 22 28 35 36 32 43 51
43 44 42 41 35 32 24 27 31 36 33 28 27 22 20 15 18 25 28 26 27 26 29 32 34 32 26 21 26 29 32 32 28 27 24 24 27 28 24 31 35 32 45
50 48 53 49 37 29 26 27 33 37 41 42 39 35 31 22 19 22 20 13 17 19 24 26 25 31 29 28 26 23 24 22 22 26 30 29 26 32 30 29 30 31 40
44 47 51 51 42 34 28 31 35 39 39 41 41 39 38 34 32 20 17 12 9 11 17 23 20 28 32 28 26 24 25 26 24 25 27 20 22 28 28 29 29 27 30
46 51 58 62 48 40 34 32 39 35 41 44 35 26 25 31 36 40 35 28 20 15 16 23 23 20 23 25 29 27 18 15 19 21 26 26 24 29 31 25 26 28 28
52 61 63 51 42 41 35 33 40 38 42 39 38 29 23 25 31 34 39 45 42 39 33 34 37 34 31 27 31 33 33 34 34 22 15 23 17 21 22 19 22 25 25
68 49 52 41 42 43 39 33 35 36 36 36 38 24 29 25 29 33 33 34 36 36 43 48 52 49 42 31 34 39 39 34 32 29 22 24 24 25 17 15 17 18 20
51 52 49 44 39 37 32 35 36 41 37 33 34 35 36 32 32 30 28 30 37 43 49 48 43 40 44 50 40 36 34 31 30 35 31 29 24 26 16 17 11 13 18
Wind_Direction_850mb
201 220 238 212 235 238 224 190 197 191 210 166 192 219 231 283 267 282 284 296 340 323 328 301 294 279 252 223 224 228 227 237 252 258 269 289 307 320 329 333 334 331 332
211 214 229 243 237 243 255 260 242 227 223 261 234 227 244 262 264 269 273 284 303 311 326 324 303 288 266 240 234 239 238 248 253 249 259 289 324 334 335 339 337 332 331
238 215 220 222 226 237 243 251 252 238 235 266 260 247 243 271 225 247 257 276 273 286 301 316 320 308 289 257 239 231 233 234 236 237 251 287 304 320 330 340 334 333 331
251 248 224 224 217 219 215 226 236 229 240 257 268 246 250 259 225 235 248 262 272 271 269 293 308 329 312 280 245 231 223 219 220 232 245 271 292 307 327 340 344 337 329
249 248 249 236 223 222 224 231 230 239 243 252 247 243 239 236 225 223 245 271 264 258 268 286 293 301 306 284 249 224 219 216 221 233 253 275 287 305 325 342 346 339 334
249 250 251 250 228 223 227 228 229 226 244 254 238 229 233 247 221 218 232 248 252 252 265 273 283 280 282 267 255 233 224 220 222 231 236 252 273 301 329 343 351 340 340
250 247 252 252 232 224 231 235 236 237 239 249 253 255 257 252 243 242 231 226 247 256 260 261 268 272 269 247 267 249 235 231 228 227 229 236 261 305 325 330 342 341 338
246 242 250 248 246 239 234 235 240 231 231 242 250 259 265 259 251 239 231 229 231 238 257 257 263 273 269 260 255 266 272 256 247 245 247 248 257 295 309 329 341 338 338
250 245 249 255 258 250 245 249 247 249 245 241 243 242 260 258 257 240 239 240 239 231 235 251 260 264 273 271 268 259 261 257 258 259 257 256 262 280 288 315 336 333 330
251 276 259 252 248 252 250 244 245 261 268 254 239 250 257 259 258 277 265 272 237 228 224 240 256 262 267 268 275 282 276 262 264 261 255 258 262 266 273 289 315 323 321
295 264 244 303 255 240 246 241 235 306 316 265 264 278 278 267 264 262 270 264 230 228 245 245 243 243 242 247 253 262 287 280 265 258 257 260 263 265 265 272 287 302 312
56 218 218 257 254 236 239 244 274 312 3 351 327 308 281 281 293 244 254 267 285 279 286 267 246 242 242 257 247 252 254 270 274 261 259 261 263 262 263 266 271 280 298
41 47 120 217 245 265 281 272 289 279 319 281 292 296 271 270 271 248 262 271 283 285 297 280 274 278 267 272 255 254 253 255 258 265 262 260 262 263 260 260 261 265 277
353 4 16 13 337 23 32 276 256 249 266 226 241 265 274 262 262 260 265 271 276 274 280 278 287 279 271 263 266 252 258 260 248 249 259 258 260 261 261 261 254 255 262
4 354 352 8 37 59 50 27 292 278 263 240 258 261 275 281 285 271 271 268 266 271 277 273 285 288 265 258 253 246 267 234 257 242 242 252 257 262 261 258 252 249 252
12 5 352 354 349 356 333 352 299 286 272 276 270 277 275 290 289 277 280 274 271 269 270 280 283 282 279 266 272 252 235 248 223 235 242 255 262 263 259 256 251 243 245
354 346 350 339 347 356 342 330 296 282 268 324 308 298 290 279 292 301 290 279 280 282 286 280 282 285 286 282 276 254 232 207 223 250 266 267 265 261 261 252 254 244 238
355 356 344 324 327 306 299 308 290 292 320 313 274 291 325 308 302 294 289 298 302 304 301 298 285 284 280 272 263 256 234 241 247 252 277 269 259 257 260 258 251 248 236
349 342 346 347 347 319 299 279 285 283 282 295 309 306 320 338 318 318 307 304 317 311 294 291 295 300 304 281 258 251 253 247 233 247 251 251 269 263 266 257 255 249 235
355 346 345 339 332 333 346 339 306 287 284 279 286 299 297 303 328 323 319 330 329 329 320 303 291 299 312 313 301 271 244 241 243 245 241 248 260 258 257 266 268 260 238
347 346 342 343 336 329 329 329 330 325 308 293 285 283 277 273 304 308 306 305 324 346 341 348 332 309 303 299 310 300 291 271 244 262 264 267 275 269 261 258 265 274 249
333 331 334 331 329 332 324 323 324 325 329 327 310 298 277 269 273 282 306 329 312 336 353 344 339 334 332 330 311 294 282 270 267 264 272 269 267 271 267 262 258 265 264
317 318 318 320 320 320 321 320 317 319 325 331 325 317 309 285 276 282 283 289 290 300 302 304 312 322 323 324 323 317 311 299 290 282 288 287 281 274 277 279 266 288 261
317 316 315 320 312 311 309 310 308 312 322 331 332 313 313 317 310 302 299 294 287 285 287 286 289 293 303 290 291 298 297 296 298 291 306 309 312 322 321 309 293 284 288
312 314 318 314 315 306 307 311 306 307 314 319 337 307 301 307 305 302 300 301 304 300 288 286 282 277 271 279 272 280 284 294 296 295 287 279 286 303 291 266 284 296 289
307 314 322 320 315 317 304 296 300 302 298 309 323 329 322 303 309 314 306 303 302 306 307 302 293 283 269 261 269 273 283 290 298 299 300 285 268 280 276 282 269 219 270